Weather in Godoberi

Russia / Republic of Dagestan     42°37′43″N   46°07′00″E
temp.,
°C
wind,
m/s
gust,
m/s
humid.,
%
clouds,
%
prec.,
mm/h
press.,
hPa
HPBL,
m
6 may, thu
thu600:00+1se22904 0.0 101824
03:000sse22875 0.0 101829
06:00+3se23856 0.0 101789
09:00+10se22561 0.0 1013812
12:00+14ne23420 0.0 10111515
15:00+14n33506 0.0 10101485
18:00+10nnw22766 0.6 1012103
21:00+6ssw11895 0.6 101411
7 may, fri
fri700:00+6s2282100 0.0 101416
03:00+5s1170100 0.0 101413
06:00+6sw116187 0.0 101523
09:00+11nnw225560 0.0 1015795
12:00+13n3254100 0.2 10141595
15:00+12nnw436381 0.8 10161225
18:00+9nnw227488 0.2 1018603
21:00+6sw119078 0.3 102018
8 may, sat
sat800:00+5sse11805 0.0 102015
03:00+5sse11734 0.0 101914
06:00+7se22790 0.0 101976
09:00+13se22540 0.0 1016891
12:00+17ne23415 0.0 10141669
15:00+17n334718 0.0 10121396
18:00+13nnw1176100 0.2 101399
21:00+10sse3376100 0.2 101435
9 may, sun
sun900:00+8s336686 0.0 101450
03:00+7s22662 0.0 101329
06:00+9s346787 0.0 101186
09:00+17s344238 0.0 1007879
12:00+18nw4548100 0.0 10071480
15:00+10nw4593100 0.7 1010584
18:00+8nw3595100 2.8 1013550
21:00+3nnw4597100 6.4 1019380
10 may, mon
mon1000:000nw4597100 1.6 1021319
03:00−2nw3594100 3.3 1023353
06:00−3nw3494100 3.7 1023323
09:00−3nw3495100 11.8 1024433
12:000wnw238869 4.4 1023558
15:00+1ene118638 4.4 1020633
18:000e119548 0.0 1021118
21:00−5sse119433 0.0 102514